When you browse on this site, cookies collect data to enhance your experience and personalize the content and advertising you see.
Visit our Privacy Policy to learn more. By continuing to use the site, you agree to this use of cookies and data.
  • en Belgique
  • Liste des pays
  • À 7 jours
  • Température de l'eau
  • Carte satellitaire
  • Carte météo
  • Widgets météo
  • user-avatar
    Se connecter

    Météo par heure à Zhohovo

    Ce jour, 23 Mai, Jeudi

    Heure Température Précipitation Vent Pression Humidité
    00:00 +11°C° 0 mm 1 m/s 742 mmHg 97%
    01:00 +11°C° 0 mm 1 m/s 742 mmHg 97%
    02:00 +10°C° 0 mm 0 m/s 741 mmHg 96%
    03:00 +11°C° 0.1 mm 0 m/s 741 mmHg 96%
    04:00 +11°C° 0.1 mm 0 m/s 741 mmHg 95%
    05:00 +12°C° 0.1 mm 0 m/s 740 mmHg 94%
    06:00 +15°C° 0 mm 1 m/s 740 mmHg 89%
    07:00 +16°C° 0 mm 1 m/s 740 mmHg 85%
    08:00 +19°C° 0 mm 1 m/s 740 mmHg 80%
    09:00 +18°C° 0.9 mm 2 m/s 740 mmHg 79%
    10:00 +19°C° 0.9 mm 3 m/s 740 mmHg 79%
    11:00 +19°C° 0.9 mm 4 m/s 741 mmHg 78%
    12:00 +18°C° 0.4 mm 4 m/s 741 mmHg 78%
    13:00 +16°C° 0.4 mm 5 m/s 741 mmHg 79%
    14:00 +15°C° 0.4 mm 6 m/s 742 mmHg 79%
    15:00 +14°C° 0 mm 5 m/s 742 mmHg 78%
    16:00 +13°C° 0 mm 5 m/s 742 mmHg 76%
    17:00 +12°C° 0 mm 5 m/s 743 mmHg 75%
    18:00 +10°C° 0 mm 4 m/s 743 mmHg 77%
    19:00 +9°C° 0 mm 3 m/s 744 mmHg 80%
    20:00 +8°C° 0 mm 2 m/s 744 mmHg 83%
    21:00 +7°C° 0 mm 2 m/s 745 mmHg 85%
    22:00 +6°C° 0 mm 2 m/s 745 mmHg 87%
    23:00 +6°C° 0 mm 2 m/s 745 mmHg 88%

    Demain, 24 Mai, Vendredi

    Heure Température Précipitation Vent Pression Humidité
    00:00 +5°C° 0 mm 2 m/s 746 mmHg 85%
    01:00 +5°C° 0 mm 2 m/s 746 mmHg 82%
    02:00 +4°C° 0 mm 2 m/s 747 mmHg 78%
    03:00 +3°C° 0 mm 3 m/s 747 mmHg 74%
    04:00 +4°C° 0 mm 3 m/s 747 mmHg 70%
    05:00 +4°C° 0 mm 3 m/s 748 mmHg 66%
    06:00 +7°C° 0 mm 3 m/s 748 mmHg 61%
    07:00 +8°C° 0 mm 3 m/s 748 mmHg 57%
    08:00 +10°C° 0 mm 3 m/s 748 mmHg 52%
    09:00 +11°C° 0 mm 3 m/s 748 mmHg 50%
    10:00 +12°C° 0 mm 3 m/s 748 mmHg 47%
    11:00 +13°C° 0 mm 3 m/s 748 mmHg 45%
    12:00 +13°C° 0 mm 3 m/s 748 mmHg 45%
    13:00 +14°C° 0 mm 3 m/s 748 mmHg 44%
    14:00 +14°C° 0 mm 3 m/s 748 mmHg 44%
    15:00 +14°C° 0 mm 3 m/s 748 mmHg 46%
    16:00 +14°C° 0 mm 3 m/s 747 mmHg 49%
    17:00 +14°C° 0 mm 3 m/s 747 mmHg 51%
    18:00 +13°C° 0 mm 3 m/s 747 mmHg 57%
    19:00 +11°C° 0 mm 3 m/s 747 mmHg 63%
    20:00 +9°C° 0 mm 3 m/s 747 mmHg 69%
    21:00 +9°C° 0 mm 3 m/s 747 mmHg 68%
    22:00 +9°C° 0 mm 3 m/s 747 mmHg 67%
    23:00 +7°C° 0 mm 4 m/s 747 mmHg 66%

    Après-demain, 25 Mai, Samedi

    Heure Température Précipitation Vent Pression Humidité
    00:00 +7°C° 0 mm 4 m/s 747 mmHg 66%
    01:00 +7°C° 0 mm 4 m/s 746 mmHg 66%
    02:00 +7°C° 0 mm 4 m/s 746 mmHg 66%
    03:00 +7°C° 0 mm 4 m/s 746 mmHg 68%
    04:00 +8°C° 0 mm 4 m/s 745 mmHg 71%
    05:00 +8°C° 0 mm 4 m/s 745 mmHg 74%
    06:00 +8°C° 0.5 mm 4 m/s 745 mmHg 77%
    07:00 +10°C° 0.5 mm 4 m/s 745 mmHg 80%
    08:00 +11°C° 0.5 mm 4 m/s 744 mmHg 83%
    09:00 +12°C° 0.1 mm 4 m/s 744 mmHg 79%
    10:00 +14°C° 0.1 mm 5 m/s 744 mmHg 74%
    11:00 +16°C° 0.1 mm 5 m/s 743 mmHg 70%
    12:00 +17°C° 0 mm 5 m/s 743 mmHg 69%
    13:00 +19°C° 0 mm 5 m/s 743 mmHg 67%
    14:00 +19°C° 0 mm 4 m/s 742 mmHg 66%
    15:00 +18°C° 0.2 mm 4 m/s 742 mmHg 72%
    16:00 +18°C° 0.2 mm 3 m/s 741 mmHg 78%
    17:00 +17°C° 0.2 mm 2 m/s 740 mmHg 83%
    18:00 +17°C° 0.1 mm 3 m/s 740 mmHg 85%
    19:00 +15°C° 0.1 mm 4 m/s 740 mmHg 87%
    20:00 +15°C° 0.1 mm 4 m/s 739 mmHg 89%
    21:00 +15°C° 0.1 mm 4 m/s 739 mmHg 91%
    22:00 +14°C° 0.1 mm 5 m/s 738 mmHg 93%
    23:00 +14°C° 0.1 mm 5 m/s 738 mmHg 95%

    26 Mai, Dimanche

    Heure Température Précipitation Vent Pression Humidité
    00:00 +14°C° 1 mm 4 m/s 738 mmHg 96%
    01:00 +14°C° 1 mm 4 m/s 738 mmHg 96%
    02:00 +14°C° 1 mm 4 m/s 737 mmHg 97%
    03:00 +13°C° 0.1 mm 4 m/s 737 mmHg 96%
    04:00 +13°C° 0.1 mm 3 m/s 737 mmHg 96%
    05:00 +13°C° 0.1 mm 3 m/s 737 mmHg 95%
    06:00 +13°C° 0 mm 3 m/s 738 mmHg 89%
    07:00 +14°C° 0 mm 3 m/s 738 mmHg 84%
    08:00 +15°C° 0 mm 4 m/s 738 mmHg 78%
    09:00 +17°C° 0 mm 4 m/s 738 mmHg 70%
    10:00 +17°C° 0 mm 4 m/s 738 mmHg 63%
    11:00 +18°C° 0 mm 4 m/s 738 mmHg 56%
    12:00 +19°C° 0 mm 4 m/s 738 mmHg 56%
    13:00 +19°C° 0 mm 4 m/s 738 mmHg 56%
    14:00 +19°C° 0 mm 4 m/s 738 mmHg 56%
    15:00 +19°C° 0 mm 4 m/s 738 mmHg 58%
    16:00 +19°C° 0 mm 3 m/s 738 mmHg 60%
    17:00 +19°C° 0 mm 3 m/s 738 mmHg 61%
    18:00 +17°C° 0 mm 2 m/s 738 mmHg 68%
    19:00 +15°C° 0 mm 1 m/s 738 mmHg 74%
    20:00 +12°C° 0 mm 0 m/s 738 mmHg 80%
    21:00 +13°C° 0 mm 1 m/s 738 mmHg 82%
    22:00 +12°C° 0 mm 2 m/s 738 mmHg 83%
    23:00 +12°C° 0 mm 2 m/s 737 mmHg 84%

    27 Mai, Lundi

    Heure Température Précipitation Vent Pression Humidité
    00:00 +12°C° 0 mm 2 m/s 737 mmHg 86%
    01:00 +12°C° 0 mm 2 m/s 737 mmHg 87%
    02:00 +12°C° 0 mm 2 m/s 737 mmHg 89%
    03:00 +11°C° 1.2 mm 3 m/s 737 mmHg 90%
    04:00 +10°C° 1.2 mm 4 m/s 737 mmHg 92%
    05:00 +10°C° 1.2 mm 4 m/s 737 mmHg 93%
    06:00 +9°C° 0.3 mm 5 m/s 737 mmHg 90%
    07:00 +9°C° 0.3 mm 6 m/s 737 mmHg 86%
    08:00 +10°C° 0.3 mm 6 m/s 738 mmHg 83%
    09:00 +10°C° 0.4 mm 7 m/s 738 mmHg 80%
    10:00 +10°C° 0.4 mm 7 m/s 739 mmHg 78%
    11:00 +11°C° 0.4 mm 7 m/s 739 mmHg 76%
    12:00 +11°C° 0.2 mm 7 m/s 740 mmHg 70%
    13:00 +12°C° 0.2 mm 7 m/s 740 mmHg 64%
    14:00 +14°C° 0.2 mm 7 m/s 741 mmHg 59%
    15:00 +12°C° 0.1 mm 7 m/s 741 mmHg 63%
    16:00 +13°C° 0.1 mm 6 m/s 742 mmHg 66%
    17:00 +13°C° 0.1 mm 5 m/s 742 mmHg 70%
    18:00 +12°C° 0 mm 4 m/s 743 mmHg 74%
    19:00 +10°C° 0 mm 4 m/s 743 mmHg 78%
    20:00 +9°C° 0 mm 3 m/s 744 mmHg 82%
    21:00 +10°C° 0 mm 3 m/s 744 mmHg 82%
    22:00 +10°C° 0 mm 3 m/s 744 mmHg 81%
    23:00 +10°C° 0 mm 3 m/s 745 mmHg 81%

    28 Mai, Mardi

    Heure Température Précipitation Vent Pression Humidité
    00:00 +9°C° 0 mm 3 m/s 745 mmHg 85%
    01:00 +8°C° 0 mm 2 m/s 746 mmHg 90%
    02:00 +7°C° 0 mm 2 m/s 746 mmHg 94%
    03:00 +8°C° 0 mm 2 m/s 747 mmHg 92%
    04:00 +9°C° 0 mm 2 m/s 747 mmHg 90%
    05:00 +9°C° 0 mm 2 m/s 748 mmHg 88%
    06:00 +11°C° 0 mm 3 m/s 748 mmHg 81%
    07:00 +13°C° 0 mm 3 m/s 748 mmHg 73%
    08:00 +16°C° 0 mm 3 m/s 749 mmHg 66%
    09:00 +17°C° 0 mm 3 m/s 749 mmHg 62%
    10:00 +18°C° 0 mm 3 m/s 749 mmHg 58%
    11:00 +19°C° 0 mm 3 m/s 749 mmHg 54%
    12:00 +20°C° 0 mm 3 m/s 749 mmHg 53%
    13:00 +21°C° 0 mm 3 m/s 748 mmHg 52%
    14:00 +23°C° 0 mm 2 m/s 748 mmHg 51%
    15:00 +21°C° 0 mm 2 m/s 748 mmHg 56%
    16:00 +21°C° 0 mm 2 m/s 748 mmHg 60%
    17:00 +21°C° 0 mm 2 m/s 748 mmHg 65%
    18:00 +20°C° 0 mm 2 m/s 748 mmHg 68%
    19:00 +19°C° 0 mm 2 m/s 748 mmHg 71%
    20:00 +18°C° 0 mm 3 m/s 748 mmHg 74%
    21:00 +17°C° 0 mm 3 m/s 747 mmHg 77%
    22:00 +17°C° 0 mm 3 m/s 747 mmHg 79%
    23:00 +17°C° 0 mm 3 m/s 747 mmHg 81%
    Voir plus